This is the latest recevied weather packets stored in our database for station/object KF4PPJ. If no packets are shown the sender has not sent any weather packets the latest 10 day(s).
| Time | Temp. | Humidity | Pressure | Rain* | Wind** | Luminosity | Snow |
|---|---|---|---|---|---|---|---|
| 1777561108 | 10° C | 97% | 1024.1 hPa | 0 mm | - | 66 W/m² | - |
| 1777560804 | 10° C | 97% | 1024.2 hPa | 0 mm | - | 62 W/m² | - |
| 1777560502 | 9.44° C | 97% | 1024.2 hPa | 0 mm | - | 57 W/m² | - |
| 1777560199 | 9.44° C | 97% | 1024.2 hPa | 0 mm | - | 52 W/m² | - |
| 1777559896 | 8.89° C | 97% | 1024.4 hPa | 0 mm | - | 49 W/m² | - |
| 1777559590 | 8.89° C | 97% | 1023.9 hPa | 0 mm | - | 45 W/m² | - |
| 1777559289 | 8.33° C | 97% | 1024 hPa | 0 mm | - | 42 W/m² | - |
| 1777558984 | 8.33° C | 97% | 1024 hPa | 0 mm | - | 39 W/m² | - |
| 1777558680 | 8.33° C | 97% | 1024.1 hPa | 0 mm | - | 35 W/m² | - |
| 1777558376 | 7.78° C | 97% | 1024.1 hPa | 0 mm | - | 34 W/m² | - |
| 1777558073 | 7.78° C | 97% | 1024 hPa | 0 mm | - | 31 W/m² | - |
| 1777557769 | 7.78° C | 97% | 1024.1 hPa | 0 mm | - | 29 W/m² | - |
| 1777557466 | 7.78° C | 96% | 1024.1 hPa | 0 mm | - | 28 W/m² | - |
| 1777557162 | 7.22° C | 96% | 1024.2 hPa | 0 mm | - | 26 W/m² | - |
| 1777556857 | 7.22° C | 96% | 1024.1 hPa | 0 mm | - | 23 W/m² | - |
| 1777556554 | 7.22° C | 96% | 1024.1 hPa | 0 mm | - | 22 W/m² | - |
| 1777556254 | 7.22° C | 96% | 1024.3 hPa | 0 mm | - | 21 W/m² | - |
| 1777555950 | 7.22° C | 96% | 1024.2 hPa | 0 mm | - | 19 W/m² | - |
| 1777555646 | 7.22° C | 96% | 1024.1 hPa | 0 mm | - | 16 W/m² | - |
| 1777555343 | 7.22° C | 96% | 1024 hPa | 0 mm | - | 13 W/m² | - |
| 1777555039 | 7.22° C | 96% | 1024.3 hPa | 0 mm | - | 10 W/m² | - |
| 1777554736 | 7.22° C | 96% | 1024 hPa | 0 mm | - | 8 W/m² | - |
| 1777554433 | 7.22° C | 96% | 1024 hPa | 0 mm | - | 6 W/m² | - |
| 1777554129 | 7.22° C | 96% | 1024.3 hPa | 0 mm | - | 3 W/m² | - |
| 1777553827 | 7.22° C | 96% | 1024.1 hPa | 0 mm | - | 2 W/m² | - |
* Rain latest hour (hover to see other rain measurements)
** Current wind speed in m/s (hover to see current wind gust speed)